Location: Cudham
(51.3000°N, 0.0667°E)
Time: 18:31:39
(UTC+00:00)

Meteor 1-27 Rocket - Pass Details

Date: 19 May 2025
Orbit: 830 x 908 km, 81.3° (Epoch: 22 June)

Event Time Altitude Azimuth Distance (km) Brightness Sun altitude
Exits shadow 22:30:54 26° 160° (SSE) 1,606 4.5 -16.3°
Maximum altitude 22:33:52 53° 96° (E) 1,025 4.0 -16.5°
Drops below altitude 10° 22:39:15 10° 20° (NNE) 2,457 6.9 -16.7°
Sets 22:41:42 0° 16° (NNE) 3,391 7.8 -16.9°
